Chester, MD

10:11 AM EDT on September 27, 2016 (GMT -0400)
Stevensville

Weather History for KW29 - January, 2014

Change the Weather History Date:

Tuesday, January 21, 2014

  Actual Average (KESN) Record (KESN)
Temperature  
Mean Temperature 27 °F -  
Max Temperature 37 °F 42 °F 66 °F (1951)
Min Temperature 17 °F 25 °F 9 °F (1970)
Degree Days  
Heating Degree Days 38    
Moisture  
Dew Point 23 °F    
Average Humidity 80    
Maximum Humidity 93    
Minimum Humidity 64    
Precipitation  
Precipitation 0.00 in - - ()
Sea Level Pressure  
Sea Level Pressure 29.85 in    
Wind  
Wind Speed 8 mph (NNE)    
Max Wind Speed 23 mph    
Max Gust Speed 34 mph    
Visibility 6 miles    
Events Snow    
Averages and records for this station are not official NWS values.
T = Trace of Precipitation, MM = Missing Value Source: NWS Daily Summary

Daily Weather History Graph

Daily Weather History Graph

Search for Another Location

Airport or City:

Trip Planner

Search our weather history database for the weather conditions in past years. The results will help you decide how hot, cold, wet, or windy it might be!

Date:

Astronomy

Jan. 21, 2014 Rise Set
Actual Time 7:19 AM EST 5:13 PM EST
Civil Twilight 6:50 AM EST 5:42 PM EST
Nautical Twilight 6:18 AM EST 6:15 PM EST
Astronomical Twilight 5:46 AM EST 6:47 PM EST
Moon 10:41 PM EST (1/21) 9:51 AM EST (1/21)
Length of Visible Light 10h 51m
Length of Day
9h 54m
Waning Gibbous, 75% of the Moon is Illuminated
Jan 21
Waning Gibbous
Jan 24
Last Quarter
Jan 30
New
Feb 6
First Quarter
Feb 14
Full

Hourly Weather History & Observations

Time (EST) Temp. Windchill Dew Point Humidity Pressure Visibility Wind Dir Wind Speed Gust Speed Precip Events Conditions
12:03 AM 37.4 °F 33.8 °F 28.4 °F 70% 29.89 in 10.0 mi NE 4.6 mph - N/A   Clear
12:23 AM 37.4 °F 34.9 °F 28.4 °F 70% 29.89 in 10.0 mi ENE 3.5 mph - N/A   Clear
12:43 AM 37.4 °F - 28.4 °F 70% 29.89 in 10.0 mi Calm Calm - N/A   Clear
1:03 AM 35.6 °F 32.8 °F 26.6 °F 70% 29.89 in 10.0 mi NE 3.5 mph - N/A   Clear
1:24 AM 35.6 °F 32.8 °F 26.6 °F 70% 29.88 in 10.0 mi NE 3.5 mph - N/A   Clear
1:44 AM 35.6 °F 32.8 °F 26.6 °F 70% 29.88 in 10.0 mi NE 3.5 mph - N/A   Clear
2:04 AM 35.6 °F - 26.6 °F 70% 29.89 in 10.0 mi Calm Calm - N/A   Clear
2:24 AM 35.6 °F - 26.6 °F 70% 29.89 in 10.0 mi Calm Calm - N/A   Clear
2:44 AM 35.6 °F - 26.6 °F 70% 29.89 in 10.0 mi Calm Calm - N/A   Clear
3:04 AM 33.8 °F 29.6 °F 26.6 °F 75% 29.89 in 10.0 mi East 4.6 mph - N/A   Clear
3:24 AM 33.8 °F 30.8 °F 28.4 °F 81% 29.89 in 10.0 mi East 3.5 mph - N/A   Clear
3:44 AM 33.8 °F 29.6 °F 28.4 °F 81% 29.89 in 10.0 mi East 4.6 mph - N/A   Clear
4:04 AM 33.8 °F 29.6 °F 26.6 °F 75% 29.88 in 10.0 mi NE 4.6 mph - N/A   Clear
4:24 AM 35.6 °F 30.7 °F 26.6 °F 70% 29.88 in 10.0 mi ENE 5.8 mph - N/A   Clear
4:44 AM 35.6 °F 31.7 °F 26.6 °F 70% 29.88 in 10.0 mi ENE 4.6 mph - N/A   Clear
5:04 AM 33.8 °F 30.8 °F 26.6 °F 75% 29.87 in 10.0 mi ENE 3.5 mph - N/A   Clear
5:24 AM 33.8 °F 30.8 °F 24.8 °F 70% 29.87 in 10.0 mi NE 3.5 mph - N/A   Clear
5:44 AM 33.8 °F 30.8 °F 26.6 °F 75% 29.87 in 10.0 mi ENE 3.5 mph - N/A   Clear
6:04 AM 33.8 °F 28.6 °F 26.6 °F 75% 29.87 in 10.0 mi ENE 5.8 mph - N/A   Clear
6:24 AM 33.8 °F 27.0 °F 24.8 °F 70% 29.86 in 10.0 mi ENE 8.1 mph - N/A   Clear
6:44 AM 33.8 °F 26.4 °F 24.8 °F 70% 29.87 in 10.0 mi ENE 9.2 mph - N/A   Clear
7:04 AM 33.8 °F 27.7 °F 26.6 °F 75% 29.87 in 10.0 mi ENE 6.9 mph - N/A   Clear
7:24 AM 33.8 °F 26.4 °F 26.6 °F 75% 29.86 in 10.0 mi NE 9.2 mph 16.1 mph N/A   Clear
7:44 AM 32.0 °F 23.6 °F 26.6 °F 80% 29.86 in 10.0 mi ENE 10.4 mph 16.1 mph N/A   Clear
8:04 AM 32.0 °F 23.6 °F 26.6 °F 80% 29.86 in 10.0 mi ENE 10.4 mph - N/A   Clear
8:24 AM 32.0 °F 22.5 °F 26.6 °F 80% 29.86 in 10.0 mi ENE 12.7 mph 18.4 mph N/A   Mostly Cloudy
8:44 AM 32.0 °F 22.5 °F 26.6 °F 80% 29.85 in 10.0 mi ENE 12.7 mph 19.6 mph N/A   Mostly Cloudy
9:04 AM 32.0 °F 23.6 °F 26.6 °F 80% 29.86 in 10.0 mi ENE 10.4 mph - N/A   Scattered Clouds
9:24 AM 32.0 °F 24.2 °F 23.0 °F 69% 29.87 in 10.0 mi NE 9.2 mph - N/A   Mostly Cloudy
9:45 AM 32.0 °F 24.2 °F 23.0 °F 69% 29.88 in 10.0 mi ENE 9.2 mph - N/A   Mostly Cloudy
10:05 AM 32.0 °F 24.8 °F 23.0 °F 69% 29.87 in 10.0 mi NE 8.1 mph - N/A   Mostly Cloudy
10:25 AM 32.0 °F 24.2 °F 21.2 °F 64% 29.87 in 10.0 mi NNE 9.2 mph 18.4 mph N/A   Mostly Cloudy
10:45 AM 32.0 °F 22.1 °F 23.0 °F 69% 29.87 in 3.0 mi NNE 13.8 mph 18.4 mph N/A Snow Light Snow
11:05 AM 30.2 °F 20.8 °F 23.0 °F 75% 29.86 in 2.0 mi NNE 11.5 mph 19.6 mph N/A Snow Light Snow
11:25 AM 28.4 °F 17.5 °F 23.0 °F 80% 29.84 in 1.5 mi NNE 13.8 mph 21.9 mph N/A Snow Light Snow
11:45 AM 28.4 °F 18.5 °F 23.0 °F 80% 29.82 in 2.5 mi NNE 11.5 mph 24.2 mph N/A Snow Light Snow
12:05 PM 26.6 °F 16.2 °F 23.0 °F 86% 29.81 in 1.5 mi NNE 11.5 mph 20.7 mph N/A Snow Light Snow
12:25 PM 26.6 °F 17.5 °F 23.0 °F 86% 29.79 in 1.5 mi NNE 9.2 mph 21.9 mph N/A Snow Light Snow
12:45 PM 26.6 °F 14.7 °F 23.0 °F 86% - 0.5 mi NNE 15.0 mph 23.0 mph N/A Snow Light Snow
1:05 PM 26.6 °F 14.7 °F 23.0 °F 86% 29.76 in 0.5 mi North 15.0 mph 20.7 mph N/A Snow Light Snow
1:25 PM 26.6 °F 15.7 °F 23.0 °F 86% 29.76 in 0.5 mi NNE 12.7 mph 21.9 mph N/A Snow Light Snow
1:45 PM 26.6 °F 14.7 °F 23.0 °F 86% 29.76 in 0.5 mi North 15.0 mph 21.9 mph N/A Snow Light Snow
2:05 PM 26.6 °F 14.7 °F 23.0 °F 86% 29.75 in 0.5 mi NNE 15.0 mph 21.9 mph N/A Snow Light Snow
2:25 PM 26.6 °F 15.7 °F 23.0 °F 86% 29.75 in 0.5 mi North 12.7 mph 19.6 mph N/A Snow Light Snow
2:45 PM 26.6 °F 15.7 °F 23.0 °F 86% 29.75 in 0.5 mi North 12.7 mph 24.2 mph N/A Snow Snow
3:05 PM 24.8 °F 12.4 °F 23.0 °F 93% 29.75 in 0.5 mi North 15.0 mph 23.0 mph N/A Snow Snow
3:25 PM 24.8 °F 12.4 °F 23.0 °F 93% 29.76 in 0.5 mi NNE 15.0 mph 24.2 mph N/A Snow Light Snow
3:45 PM 23.0 °F 10.6 °F 21.2 °F 93% 29.77 in 0.8 mi NNE 13.8 mph 25.3 mph N/A Snow Light Snow
4:05 PM 23.0 °F 12.4 °F 21.2 °F 93% 29.78 in 0.5 mi North 10.4 mph 21.9 mph N/A Snow Light Snow
4:25 PM 23.0 °F 13.1 °F 21.2 °F 93% 29.80 in 0.5 mi North 9.2 mph 18.4 mph N/A Snow Light Snow
4:45 PM 23.0 °F 9.2 °F 21.2 °F 93% 29.80 in 0.5 mi North 17.3 mph 23.0 mph N/A Snow Snow
5:05 PM 23.0 °F 9.2 °F 21.2 °F 93% 29.81 in 0.8 mi North 17.3 mph 25.3 mph N/A Snow Light Snow
5:25 PM 23.0 °F 9.6 °F 21.2 °F 93% 29.81 in 1.2 mi North 16.1 mph 25.3 mph N/A Snow Light Snow
5:45 PM 23.0 °F 9.6 °F 19.4 °F 86% 29.81 in 2.5 mi NNE 16.1 mph 26.5 mph N/A Snow Light Snow
6:05 PM 23.0 °F 9.6 °F 19.4 °F 86% 29.83 in 7.0 mi North 16.1 mph 24.2 mph N/A Snow Light Snow
6:26 PM 23.0 °F 10.1 °F 17.6 °F 80% 29.84 in 5.0 mi NNE 15.0 mph 28.8 mph N/A Snow Light Snow
6:46 PM 23.0 °F 11.1 °F 17.6 °F 80% 29.85 in 5.0 mi North 12.7 mph 23.0 mph N/A Snow Light Snow
7:06 PM 23.0 °F 9.6 °F 19.4 °F 86% 29.85 in 3.0 mi North 16.1 mph 24.2 mph N/A Snow Light Snow
7:26 PM 21.2 °F 8.9 °F 19.4 °F 93% 29.85 in 2.5 mi North 12.7 mph 21.9 mph N/A Snow Light Snow
7:46 PM 21.2 °F 7.3 °F 17.6 °F 86% 29.85 in 2.0 mi North 16.1 mph 24.2 mph N/A Snow Light Snow
8:06 PM 21.2 °F 8.9 °F 17.6 °F 86% 29.86 in 2.5 mi North 12.7 mph 23.0 mph N/A Snow Light Snow
8:26 PM 21.2 °F 8.3 °F 19.4 °F 93% 29.87 in 1.8 mi North 13.8 mph 21.9 mph N/A Snow Light Snow
8:46 PM 21.2 °F 6.0 °F 19.4 °F 93% 29.87 in 1.5 mi North 19.6 mph 27.6 mph N/A Snow Light Snow
9:06 PM 21.2 °F 6.0 °F 17.6 °F 86% 29.87 in 1.2 mi North 19.6 mph 29.9 mph N/A Snow Light Snow
9:26 PM 21.2 °F 6.0 °F 17.6 °F 86% 29.87 in 1.5 mi North 19.6 mph 29.9 mph N/A Snow Light Snow
9:46 PM 19.4 °F 3.2 °F 17.6 °F 93% 29.85 in 1.2 mi North 20.7 mph 28.8 mph N/A Snow Light Snow
10:06 PM 19.4 °F 3.6 °F 17.6 °F 93% 29.86 in 1.2 mi North 19.6 mph 33.4 mph N/A Snow Light Snow
10:26 PM 19.4 °F 2.8 °F 15.8 °F 86% 29.85 in 1.8 mi North 21.9 mph 32.2 mph N/A Snow Light Snow
10:46 PM 19.4 °F 3.6 °F 14.0 °F 80% 29.86 in 2.0 mi North 19.6 mph 29.9 mph N/A Snow Light Snow
11:06 PM 19.4 °F 2.8 °F 12.2 °F 74% 29.86 in 4.0 mi North 21.9 mph 34.5 mph N/A Snow Light Snow
11:26 PM 17.6 °F 0.1 °F 12.2 °F 79% 29.85 in 3.0 mi North 23.0 mph 31.1 mph N/A Snow Light Snow
11:46 PM 17.6 °F 2.2 °F 12.2 °F 79% 29.87 in 3.0 mi North 17.3 mph 31.1 mph N/A Snow Light Snow